Flag for U.S.A. Weather past 2 weeks in Worcester, Massachusetts, U.S.A.

Now
34 °F

Mostly cloudy.


Feels Like: 23 °F
Forecast: 32 / 40 °F
Wind: 20 mph from West

Location: Worcester Regional Airport

Current Time: Dec 18, 2014 at 3:50:00 AM

Latest Report: Dec 18, 2014 at 2:54 AM


Visibility: 10 mi

Pressure: 29.72 "Hg

Humidity: 79%

Dew point: 28 °F

Location of WorcesterLocation

Historic Weather in Worcester — Graph

°F

Worcester temperature yesterday

Maximum temperature yesterday: 43 °F (at 1:54 PM)
Minimum temperature yesterday: 35 °F (at 1:54 AM)
Average temperature yesterday: 39 °F

Past Weeks' High & Low Weather Summary

 TemperatureHumidityPressure
High44 °F (Dec 3, 3:54 PM)100% (Dec 3, 2:04 AM)30.74 "Hg (Dec 3, 2:04 AM)
Low12 °F (Dec 8, 3:54 AM)31% (Dec 7, 3:54 PM)29.42 "Hg (Dec 10, 10:04 PM)
Average31 °F84%30.05 "Hg
* Reported Dec 3 2:04 AM — Dec 18 2:54 AM, Worcester, Weather by CustomWeather, © 2014

Note: Actual official high and low records may vary slightly from our data, if they occured in-between our weather recording intervals... More about our weather records

Advertising

Worcester weather history for previous 24 hours

 ConditionsComfort  
Time TempWeatherWind HumidityBarometerVisibility
2:54 AM
Dec 18
34 °FMostly cloudy.20 mph79%29.72 "Hg10 mi
1:54 AM34 °FOvercast.20 mph79%29.71 "Hg10 mi
12:54 AM34 °FPartly cloudy.23 mph82%29.71 "Hg10 mi
11:54 PM
Dec 17
35 °FOvercast.13 mph82%29.73 "Hg10 mi
10:54 PM35 °FOvercast.14 mph85%29.75 "Hg10 mi
9:54 PM36 °FOvercast.15 mph89%29.76 "Hg10 mi
8:54 PM37 °FOvercast.15 mph89%29.76 "Hg10 mi
7:54 PM38 °FMostly cloudy.18 mph90%29.76 "Hg10 mi
6:54 PM40 °FPassing clouds.17 mph86%29.75 "Hg10 mi
5:54 PM41 °FPassing clouds.18 mph82%29.75 "Hg10 mi
4:54 PM41 °FMostly cloudy.16 mph86%29.73 "Hg10 mi
3:54 PM42 °FOvercast.16 mph85%29.74 "Hg10 mi
2:54 PM43 °FPartly sunny.16 mph86%29.72 "Hg10 mi
1:54 PM43 °FMostly cloudy.13 mph89%29.73 "Hg10 mi
12:54 PM42 °FLow clouds.13 mph92%29.72 "Hg10 mi
11:54 AM42 °FPartly sunny.13 mph96%29.74 "Hg10 mi
10:54 AM39 °FMore clouds than sun.12 mph100%29.75 "Hg10 mi
9:54 AM38 °FFog.9 mph100%29.78 "Hg6 mi
8:54 AM39 °FFog.9 mph100%29.77 "Hg1 mi
8:03 AM39 °FFog.5 mph100%29.74 "Hg1 mi
6:54 AM39 °FFog.6 mph100%29.78 "Hg1 mi
5:54 AM38 °FFog.12 mph100%29.78 "Hg1 mi
5:01 AM37 °FLight rain. Fog.9 mph100%29.76 "Hg2 mi
3:54 AM37 °FRain. Fog.9 mph100%29.82 "Hg5 mi
Weather by CustomWeather, © 2014

See weather overviewHow to use our weather pages